#timestamp,LO_Frequency,Hit,Temp,Hum 
1479538815.2,286046909.7,N,0.0,0.0
1479538835.0,286046909.8,N,0.0,0.0
1479538835.9,286046909.8,N,0.0,0.0
1479538855.8,286046909.5,N,0.0,0.0
1479538875.6,286046909.3,N,0.0,0.0
1479538895.4,286046908.7,N,0.0,0.0
1479538915.3,286046908.5,N,0.0,0.0
1479538935.1,286046910.9,N,0.0,0.0
1479538955.9,286046908.6,N,0.0,0.0
1479538975.7,286046911.0,N,0.0,0.0
1479538995.5,286046910.8,N,0.0,0.0
1479539015.4,286046911.9,N,0.0,0.0
1479539035.2,286046914.4,N,0.0,0.0
1479539055.0,286046912.2,N,0.0,0.0
1479539055.9,286046912.2,N,0.0,0.0
1479539075.8,286046912.2,N,0.0,0.0
1479539095.6,286046914.1,N,0.0,0.0
1479539115.5,286046913.9,N,0.0,0.0
1479539135.3,286046914.2,N,0.0,0.0
1479539155.1,286046914.0,N,0.0,0.0
1479539175.9,286046916.1,N,0.0,0.0
1479539195.7,286046916.0,N,0.0,0.0
1479539215.6,286046914.9,N,0.0,0.0
1479539235.4,286046916.8,N,0.0,0.0
1479539255.2,286046917.1,N,0.0,0.0
1479539275.1,286046917.4,N,0.0,0.0
1479539276.0,286046917.4,N,0.0,0.0
1479539295.8,286046919.3,N,0.0,0.0
1479539315.6,286046919.1,N,0.0,0.0
1479539335.5,286046919.4,N,0.0,0.0
1479539355.3,286046917.3,N,0.0,0.0
1479539375.2,286046917.2,N,0.0,0.0
1479539395.9,286046916.9,N,0.0,0.0
1479539415.7,286046919.3,N,0.0,0.0
1479539435.6,286046919.6,N,0.0,0.0
1479539455.4,286046918.4,N,0.0,0.0
1479539475.2,286046918.8,N,0.0,0.0
1479539495.1,286046921.2,N,0.0,0.0
1479539496.0,286046921.2,N,0.0,0.0
1479539515.8,286046918.5,N,0.0,0.0
1479539535.7,286046921.2,N,0.0,0.0
1479539555.5,286046921.1,N,0.0,0.0
1479539575.3,286046921.0,N,0.0,0.0
1479539595.2,286046921.2,N,0.0,0.0
1479539615.0,286046920.7,N,0.0,0.0
1479539615.9,286046920.7,N,0.0,0.0
1479539635.8,286046920.9,N,0.0,0.0
1479539655.6,286046922.5,N,0.0,0.0
1479539675.4,286046922.8,N,0.0,0.0
1479539695.3,286046919.9,N,0.0,0.0
1479539715.1,286046920.2,N,0.0,0.0
1479539735.8,286046922.7,N,0.0,0.0
1479539755.7,286046919.9,N,0.0,0.0
1479539775.5,286046921.0,N,0.0,0.0
1479539795.4,286046918.5,N,0.0,0.0
1479539815.2,286046921.1,N,0.0,0.0
1479539835.0,286046918.8,N,0.0,0.0
1479539835.9,286046918.8,N,0.0,0.0
1479539855.8,286046918.9,N,0.0,0.0
1479539875.6,286046918.7,N,0.0,0.0
1479539895.4,286046921.1,N,0.0,0.0
1479539915.3,286046921.1,N,0.0,0.0
1479539935.1,286046920.9,N,0.0,0.0
1479539955.9,286046920.4,N,0.0,0.0
1479539975.7,286046922.7,N,0.0,0.0
1479539995.5,286046919.8,N,0.0,0.0
1479540015.4,286046922.2,N,0.0,0.0
1479540035.2,286046922.1,N,0.0,0.0
1479540055.0,286046922.2,N,0.0,0.0
1479540056.0,286046922.2,N,0.0,0.0
1479540075.8,286046922.7,N,0.0,0.0
1479540095.6,286046920.2,N,0.0,0.0
1479540115.5,286046920.5,N,0.0,0.0
1479540135.3,286046920.3,N,0.0,0.0
1479540155.1,286046919.3,N,0.0,0.0
1479540175.9,286046917.0,N,0.0,0.0
1479540195.7,286046917.8,N,0.0,0.0
1479540215.6,286046916.6,N,0.0,0.0
1479540235.4,286046919.1,N,0.0,0.0
1479540255.2,286046916.6,N,0.0,0.0
1479540275.1,286046917.5,N,0.0,0.0
1479540276.0,286046917.5,N,0.0,0.0
1479540295.8,286046916.6,N,0.0,0.0
1479540315.6,286046917.2,N,0.0,0.0
1479540335.5,286046917.4,N,0.0,0.0
1479540355.3,286046917.8,N,0.0,0.0
1479540375.2,286046917.0,N,0.0,0.0
1479540395.9,286046917.4,N,0.0,0.0
1479540415.7,286046919.5,N,0.0,0.0
1479540435.6,286046918.7,N,0.0,0.0
1479540455.4,286046918.4,N,0.0,0.0
1479540475.2,286046919.4,N,0.0,0.0
1479540495.1,286046916.5,N,0.0,0.0
1479540496.0,286046916.5,N,0.0,0.0
1479540515.8,286046917.7,N,0.0,0.0
1479540535.7,286046917.2,N,0.0,0.0
1479540555.5,286046917.7,N,0.0,0.0
1479540575.3,286046917.8,N,0.0,0.0
1479540595.2,286046918.0,N,0.0,0.0
1479540615.0,286046917.5,N,0.0,0.0
1479540615.9,286046917.5,N,0.0,0.0
1479540635.8,286046915.4,N,0.0,0.0
1479540655.6,286046915.8,N,0.0,0.0
1479540675.4,286046913.6,N,0.0,0.0
1479540695.3,286046913.7,N,0.0,0.0
1479540715.1,286046914.0,N,0.0,0.0
1479540735.8,286046913.4,N,0.0,0.0
1479540755.7,286046913.6,N,0.0,0.0
1479540775.5,286046913.3,N,0.0,0.0
1479540795.4,286046911.8,N,0.0,0.0
1479540815.2,286046912.5,N,0.0,0.0
1479540835.0,286046912.7,N,0.0,0.0
1479540835.9,286046912.7,N,0.0,0.0
1479540855.8,286046912.9,N,0.0,0.0
1479540875.6,286046910.1,N,0.0,0.0
1479540895.4,286046910.8,N,0.0,0.0
1479540915.3,286046910.8,N,0.0,0.0
1479540935.1,286046910.5,N,0.0,0.0
1479540955.9,286046911.0,N,0.0,0.0
1479540975.7,286046909.0,N,0.0,0.0
1479540995.5,286046909.5,N,0.0,0.0
1479541015.4,286046909.6,N,0.0,0.0
1479541035.2,286046909.6,N,0.0,0.0
1479541055.1,286046909.5,N,0.0,0.0
1479541056.0,286046909.5,N,0.0,0.0
1479541075.8,286046910.0,N,0.0,0.0
1479541095.6,286046909.9,N,0.0,0.0
1479541115.5,286046907.0,N,0.0,0.0
1479541135.3,286046907.2,N,0.0,0.0
1479541155.1,286046907.6,N,0.0,0.0
1479541175.9,286046907.3,N,0.0,0.0
1479541195.7,286046908.2,N,0.0,0.0
1479541215.6,286046905.3,N,0.0,0.0
1479541235.4,286046906.7,N,0.0,0.0
1479541255.2,286046906.2,N,0.0,0.0
1479541275.1,286046904.0,N,0.0,0.0
1479541276.0,286046904.0,N,0.0,0.0
1479541295.8,286046904.4,N,0.0,0.0
1479541315.6,286046905.0,N,0.0,0.0
1479541335.5,286046904.1,N,0.0,0.0
1479541355.3,286046904.0,N,0.0,0.0
1479541375.2,286046904.9,N,0.0,0.0
1479541395.9,286046905.0,N,0.0,0.0
1479541415.7,286046905.0,N,0.0,0.0
1479541435.6,286046902.7,N,0.0,0.0
1479541455.4,286046903.6,N,0.0,0.0
1479541475.2,286046901.0,N,0.0,0.0
1479541495.1,286046900.6,N,0.0,0.0
1479541496.0,286046900.6,N,0.0,0.0
1479541515.8,286046901.1,N,0.0,0.0
1479541535.7,286046901.4,N,0.0,0.0
1479541555.5,286046902.0,N,0.0,0.0
1479541575.3,286046899.4,N,0.0,0.0
1479541595.2,286046900.2,N,0.0,0.0
1479541615.0,286046900.0,N,0.0,0.0
1479541615.9,286046900.0,N,0.0,0.0
1479541635.8,286046899.9,N,0.0,0.0
1479541655.6,286046900.2,N,0.0,0.0
1479541675.4,286046897.7,N,0.0,0.0
1479541695.3,286046898.1,N,0.0,0.0
1479541715.1,286046898.4,N,0.0,0.0
1479541735.8,286046895.7,N,0.0,0.0
1479541755.7,286046896.8,N,0.0,0.0
1479541775.5,286046897.1,N,0.0,0.0
1479541795.4,286046897.2,N,0.0,0.0
1479541815.2,286046896.4,N,0.0,0.0
1479541835.0,286046894.4,N,0.0,0.0
1479541835.9,286046894.4,N,0.0,0.0
1479541855.8,286046894.5,N,0.0,0.0
1479541875.6,286046892.5,N,0.0,0.0
1479541895.5,286046894.9,N,0.0,0.0
1479541915.3,286046895.6,N,0.0,0.0
1479541935.1,286046893.1,N,0.0,0.0
1479541955.9,286046893.4,N,0.0,0.0
1479541975.7,286046893.4,N,0.0,0.0
1479541995.5,286046894.0,N,0.0,0.0
1479542015.4,286046891.4,N,0.0,0.0
1479542035.2,286046891.2,N,0.0,0.0
1479542055.1,286046891.4,N,0.0,0.0
1479542056.0,286046891.4,N,0.0,0.0
1479542075.8,286046892.2,N,0.0,0.0
1479542095.6,286046891.4,N,0.0,0.0
1479542115.5,286046891.0,N,0.0,0.0
1479542135.3,286046893.8,N,0.0,0.0
1479542155.1,286046891.6,N,0.0,0.0
1479542175.9,286046891.8,N,0.0,0.0
1479542195.7,286046891.2,N,0.0,0.0
1479542215.6,286046893.9,N,0.0,0.0
1479542235.4,286046891.9,N,0.0,0.0
1479542255.2,286046889.3,N,0.0,0.0
1479542275.1,286046892.4,N,0.0,0.0
1479542276.0,286046892.4,N,0.0,0.0
1479542295.8,286046889.4,N,0.0,0.0
1479542315.6,286046890.6,N,0.0,0.0
1479542335.5,286046887.8,N,0.0,0.0
1479542355.3,286046887.9,N,0.0,0.0
1479542375.2,286046887.9,N,0.0,0.0
1479542395.9,286046888.5,N,0.0,0.0
